User: anonymous   Login
Location: Newark
(44.6028°N, 124.0883°W)
Time: 00:51:55
(UTC+00:00)
Language:

Tiros 1 despin weight - Orbit

View from above orbital plane
View from above orbital plane
View from above satellite
View from above satellite

Ground track
Ground track

The orbit data is extracted from the following two-line orbital elements,

1   115U 60002D   19289.63757465  .00000090  00000-0  37752-4 0  9994
2   115  48.1683  11.3729 0035163 250.0206 109.6918 14.83491345176623
Epoch (UTC): 16 October 2019 15:18:06
Eccentricity: 0.0035163
inclination: 48.1683°
perigee height: 594 km
apogee height: 643 km
right ascension of ascending node: 11.3729°
argument of perigee: 250.0206°
revolutions per day: 14.83491345
mean anomaly at epoch: 109.6918°
orbit number at epoch: 17662

The dashed part of the orbit path shows where the satellite is in the earth's shadow,  

DLR